Location: Hengforden
(52.3167°N, 6.1333°E)
Time: 15:42:20
(UTC+00:00)

Cosmos 1953 - Pass Details

Date: 14 June 2025
Orbit: 485 x 500 km, 82.5° (Epoch: 19 July)

Event Time Altitude Azimuth Distance (km) Brightness Sun altitude
Rises 20:47:35 0° 358° (N) 2,604 6.8 -5.9°
Reaches altitude 10° 20:50:00 10° 13° (NNE) 1,718 5.5 -6.2°
Maximum altitude 20:53:07 24° 68° (ENE) 1,076 3.7 -6.5°
Drops below altitude 10° 20:56:13 10° 124° (SE) 1,711 4.2 -6.7°
Enters shadow 20:56:41 - 128° (SE) 1,869 4.4 -6.8°
